#timestamp,LO_Frequency,Hit,StdDev 
1562158815.1,286047000.8,N
1562158816.0,286047000.8,N
1562158835.8,286047005.4,N
1562158855.7,286047006.5,N
1562158875.5,286047005.1,N
1562158895.3,286047005.9,N
1562158915.2,286047009.6,N
1562158935.0,286047013.3,N
1562158935.9,286047013.3,N
1562158955.8,286047009.7,N
1562158975.6,286047013.9,N
1562158995.4,286047013.6,N
1562159015.3,286047020.2,N
1562159035.1,286047021.4,N
1562159055.8,286047021.6,N
1562159075.7,286047023.1,N
1562159095.5,286047022.8,N
1562159115.4,286047023.2,N
1562159135.2,286047022.9,N
1562159155.0,286047024.5,N
1562159155.9,286047024.5,N
1562159175.8,286047025.2,N
1562159195.6,286047022.8,N
1562159215.5,286047021.3,N
1562159235.3,286047020.4,N
1562159255.1,286047018.6,N
1562159275.9,286047015.7,N
1562159295.7,286047013.4,N
1562159315.5,286047012.5,N
1562159335.4,286047014.8,N
1562159355.2,286047018.3,N
1562159375.1,286047018.8,N
1562159376.0,286047018.8,Y
1562159395.8,286047002.3,P
1562159415.6,286047005.7,N
1562159435.5,286047006.7,N
1562159455.3,286047008.9,N
1562159475.1,286047009.6,N
1562159495.9,286047012.7,N
1562159515.7,286047017.1,Y
1562159535.6,286047005.8,P
1562159555.4,286047005.5,P
1562159575.2,286047003.4,N
1562159595.1,286047003.6,N
1562159596.0,286047011.9,Y
1562159615.8,286046996.4,P
1562159635.6,286046991.9,N
1562159655.5,286046989.5,N
1562159675.3,286046987.7,N
1562159695.2,286046992.5,N
1562159715.9,286046992.5,N
1562159735.7,286046987.6,N
1562159755.6,286046981.9,Y
1562159775.4,286046979.4,P
1562159795.2,286046975.3,P
1562159815.1,286046969.4,P
1562159816.0,286046969.4,Y
1562159835.8,286046989.5,P
1562159855.7,286046989.7,N
1562159875.5,286046996.6,N
1562159895.3,286047004.0,N
1562159915.2,286047004.7,N
1562159935.0,286047007.3,N
1562159935.9,286047007.3,N
1562159955.8,286047005.2,N
1562159975.6,286047008.1,N
1562159995.4,286047010.9,N
1562160015.3,286047015.0,N
1562160035.1,286047010.9,N
1562160055.8,286047018.4,N
1562160075.7,286047018.3,N
1562160095.5,286047019.6,N
1562160115.4,286047019.1,N
1562160135.2,286047019.6,N
1562160155.0,286047021.3,N
1562160155.9,286047021.3,N
1562160175.8,286047019.3,N
1562160195.6,286047019.6,N
1562160215.4,286047022.8,N
1562160235.3,286047023.5,N
1562160255.6,286047018.7,N
1562160275.4,286047012.8,N
1562160295.2,286047008.5,N
1562160315.1,286047006.5,N
1562160316.0,286047006.5,N
1562160335.8,286047004.5,N
1562160355.7,286047001.7,N
1562160375.5,286046995.2,N
1562160395.3,286046993.3,N
1562160415.2,286046993.8,N
1562160435.0,286046994.8,N
1562160435.9,286046994.8,N
1562160455.8,286046991.1,N
1562160475.6,286046992.0,N
1562160495.4,286046998.0,N
1562160515.3,286046997.1,N
1562160535.1,286046994.5,N
1562160555.8,286046989.0,N
1562160575.7,286046989.7,N
1562160595.5,286046992.3,N
1562160615.4,286046990.3,N
1562160635.2,286046988.9,N
1562160655.0,286046990.4,N
1562160655.9,286046990.4,N
1562160675.8,286046992.9,N
1562160695.6,286046993.5,N
1562160715.5,286046994.1,N
1562160735.3,286046993.9,N
1562160755.1,286046990.7,N
1562160775.9,286046992.7,N
1562160795.7,286046991.9,N
1562160815.5,286046993.0,N
1562160835.4,286046997.0,N
1562160855.2,286047000.6,N
1562160875.1,286047004.7,N
1562160876.0,286047004.7,N
1562160895.8,286047005.4,N
1562160915.6,286047002.2,N
1562160935.5,286046997.7,N
1562160955.3,286046994.0,N
1562160975.1,286046993.6,N
1562160995.9,286046999.2,N
1562161015.7,286046999.6,N
1562161035.6,286046997.2,N
1562161055.4,286046994.0,N
1562161075.2,286046998.4,N
1562161095.1,286047004.0,N
1562161096.0,286047004.0,N
1562161115.8,286047005.6,N
1562161135.7,286047003.9,N
1562161155.5,286047004.0,N
1562161175.3,286047007.3,N
1562161195.2,286047010.8,N
1562161215.0,286047013.3,N
1562161215.9,286047013.3,N
1562161235.7,286047017.0,N
1562161255.6,286047016.9,N
1562161275.4,286047014.7,N
1562161295.3,286047016.3,N
1562161315.1,286047016.3,N
1562161335.8,286047020.1,N
1562161355.7,286047021.5,N
1562161375.5,286047018.2,N
1562161395.4,286047009.8,N
1562161415.2,286047004.6,N
1562161435.0,286047005.7,N
1562161435.9,286047005.7,N
1562161455.8,286047003.2,N
1562161475.6,286047010.7,N
1562161495.4,286047012.5,N
1562161515.3,286047020.2,N
1562161535.1,286047019.7,N
1562161555.9,286047016.8,N
1562161575.7,286047012.7,N
1562161595.5,286047008.3,N
1562161615.4,286047003.2,N
1562161635.2,286047003.6,N
1562161655.0,286047002.2,N
1562161656.0,286047002.2,N
1562161675.8,286047004.3,N
1562161695.6,286047002.2,N
1562161715.5,286047001.9,N
1562161735.3,286047011.5,N
1562161755.1,286047009.7,N
1562161775.9,286047006.8,N
1562161795.7,286047005.5,N
1562161815.6,286047005.8,N
1562161835.4,286047003.4,N
1562161855.2,286046999.9,N
1562161875.1,286047003.6,N
1562161876.0,286047003.6,N
1562161895.8,286047003.5,N
1562161915.7,286047003.8,N
1562161935.5,286047006.8,N
1562161955.3,286047008.5,N
1562161975.2,286047012.4,N
1562161995.9,286047016.3,Y
1562162015.7,286047014.4,P
1562162035.6,286047013.1,P
1562162055.4,286047013.3,P
1562162075.3,286047008.6,Y
1562162095.1,286046991.7,P
1562162096.0,286046991.7,N
1562162115.8,286046990.8,N
1562162135.7,286046992.4,N
1562162155.5,286046993.8,N
1562162175.3,286046996.4,N
1562162195.2,286046998.5,N
1562162215.0,286047001.8,N
1562162215.9,286047001.8,N
1562162235.8,286047006.0,N
1562162255.6,286047010.1,N
1562162275.4,286047011.6,N
1562162295.3,286047017.2,N
1562162315.1,286047016.5,N
1562162335.8,286047012.2,N
1562162355.7,286047012.7,N
1562162375.5,286047009.1,N
1562162395.4,286047007.4,N
